Location: Napier
(39.4830°S, 176.9170°E)
Time: 03:04:48
(UTC+12:00)

Cosmos 332 Rocket - Pass Details

Date: 15 August 2020
Orbit: 681 x 705 km, 74.0° (Epoch: 19 September)

Event Time Altitude Azimuth Distance (km) Brightness Sun altitude
Rises 18:34:10 0° 338° (NNW) 3,088 7.6 -12.1°
Reaches altitude 10° 18:36:28 10° 337° (NNW) 2,178 6.8 -12.5°
Maximum altitude 18:41:24 75° 251° (WSW) 742 4.1 -13.5°
Drops below altitude 10° 18:46:23 10° 165° (SSE) 2,203 6.2 -14.4°
Sets 18:48:44 0° 162° (SSE) 3,127 6.9 -14.9°
